Location: Unspecified
(35.7250°N, 0.0000°E)
Time: 15:18:00
(UTC+00:00)

Vanguard 2 - Pass Details

Date: 20 June 2019
Orbit: 553 x 2938 km, 32.9° (Epoch: 21 July)

Event Time Altitude Azimuth Distance (km) Brightness Sun altitude
Rises 11:29:36 0° 272° (W) 3,956 11.1 75.9°
Reaches altitude 10° 11:31:53 10° 270° (W) 3,235 10.8 76.1°
Maximum altitude 11:40:19 74° 187° (S) 1,839 12.2 76.9°
Drops below altitude 10° 11:54:35 10° 106° (ESE) 5,219 12.0 77.6°
Sets 11:59:18 0° 105° (ESE) 6,481 12.3 77.7°
